TimeCDT,TemperatureF,Dew PointF,Humidity,Sea Level PressureIn,VisibilityMPH,Wind Direction,Wind SpeedMPH,Gust SpeedMPH,PrecipitationIn,Events,Conditions,WindDirDegrees,DateUTC
12:54 AM,57.9,55.9,93,30.29,10.0,North,10.4,-,N/A,,Overcast,350,2012-09-14 05:54:00
1:20 AM,57.2,55.4,94,30.30,10.0,North,11.5,-,0.02,Rain,Light Rain,350,2012-09-14 06:20:00
1:54 AM,57.0,55.9,96,30.28,10.0,NNE,9.2,-,0.03,Rain,Light Rain,30,2012-09-14 06:54:00
2:09 AM,57.2,55.4,94,30.29,10.0,North,9.2,-,0.00,,Overcast,10,2012-09-14 07:09:00
2:17 AM,57.2,55.4,94,30.29,10.0,NNE,10.4,-,0.00,,Overcast,20,2012-09-14 07:17:00
2:20 AM,57.2,55.4,94,30.29,10.0,North,8.1,-,0.00,,Overcast,10,2012-09-14 07:20:00
2:28 AM,57.2,55.4,94,30.29,10.0,North,11.5,-,0.00,,Overcast,10,2012-09-14 07:28:00
2:54 AM,57.0,55.9,96,30.28,10.0,North,9.2,-,0.00,,Overcast,10,2012-09-14 07:54:00
3:13 AM,57.2,55.4,94,30.29,10.0,North,9.2,-,0.00,Rain,Light Rain,360,2012-09-14 08:13:00
3:44 AM,57.2,55.4,94,30.29,9.0,NNE,9.2,-,0.06,Rain,Light Rain,20,2012-09-14 08:44:00
3:54 AM,57.0,55.9,96,30.28,10.0,North,8.1,-,0.07,Rain,Light Rain,360,2012-09-14 08:54:00
3:58 AM,57.2,55.4,94,30.29,10.0,North,10.4,-,0.00,Rain,Light Rain,360,2012-09-14 08:58:00
4:54 AM,57.0,55.9,96,30.29,10.0,North,10.4,-,0.02,Rain,Light Rain,10,2012-09-14 09:54:00
5:54 AM,57.0,55.9,96,30.30,10.0,North,9.2,-,0.01,Rain,Light Rain,10,2012-09-14 10:54:00
6:54 AM,55.9,55.0,97,30.32,10.0,North,11.5,-,0.00,,Overcast,10,2012-09-14 11:54:00
7:40 AM,55.4,53.6,94,30.34,10.0,NNE,9.2,-,N/A,,Overcast,20,2012-09-14 12:40:00
7:54 AM,55.9,54.0,93,30.34,10.0,NE,8.1,-,N/A,,Overcast,40,2012-09-14 12:54:00
8:54 AM,57.0,55.9,96,30.36,10.0,NE,11.5,-,N/A,,Overcast,40,2012-09-14 13:54:00
9:54 AM,61.0,57.0,87,30.37,10.0,North,10.4,-,N/A,,Mostly Cloudy,360,2012-09-14 14:54:00
10:12 AM,62.6,57.2,82,30.37,10.0,NNE,12.7,-,N/A,,Scattered Clouds,20,2012-09-14 15:12:00
10:54 AM,63.0,55.9,78,30.37,10.0,NE,10.4,-,N/A,,Partly Cloudy,40,2012-09-14 15:54:00
11:54 AM,66.9,55.0,66,30.36,10.0,NNE,10.4,-,N/A,,Clear,20,2012-09-14 16:54:00
12:54 PM,68.0,52.0,56,30.34,10.0,NNE,12.7,-,N/A,,Clear,30,2012-09-14 17:54:00
1:54 PM,69.1,51.1,53,30.33,10.0,ENE,9.2,-,N/A,,Clear,60,2012-09-14 18:54:00
2:54 PM,71.1,53.1,53,30.32,10.0,NNE,8.1,-,N/A,,Clear,20,2012-09-14 19:54:00
3:54 PM,71.1,53.1,53,30.31,10.0,North,6.9,-,N/A,,Clear,10,2012-09-14 20:54:00
4:54 PM,71.1,52.0,51,30.31,10.0,NNE,9.2,-,N/A,,Clear,30,2012-09-14 21:54:00
5:54 PM,69.1,53.1,57,30.31,10.0,North,5.8,-,N/A,,Clear,10,2012-09-14 22:54:00
6:54 PM,64.9,54.0,68,30.31,10.0,NNE,3.5,-,N/A,,Clear,30,2012-09-14 23:54:00
7:54 PM,64.0,52.0,65,30.32,10.0,North,3.5,-,N/A,,Clear,10,2012-09-15 00:54:00
8:54 PM,59.0,53.1,81,30.32,10.0,NNE,5.8,-,N/A,,Clear,20,2012-09-15 01:54:00
9:54 PM,60.1,52.0,75,30.33,10.0,Calm,Calm,-,N/A,,Clear,0,2012-09-15 02:54:00
10:54 PM,55.9,51.1,84,30.34,10.0,Calm,Calm,-,N/A,,Clear,0,2012-09-15 03:54:00
11:54 PM,54.0,51.1,90,30.32,10.0,Calm,Calm,-,N/A,,Clear,0,2012-09-15 04:54:00